Location: Shepherdstown, WV
(39.4326°N, 77.8042°W)
Time: 14:26:15
(UTC-04:00)

Vanguard 1 Rocket - Pass Details

Date: 12 August 2021
Orbit: 650 x 4226 km, 34.3° (Epoch: 20 September)

Event Time Altitude Azimuth Distance (km) Brightness Sun altitude
Rises 13:37:25 0° 283° (WNW) 7,846 12.2 64.9°
Reaches altitude 10° 13:43:41 10° 278° (W) 6,354 11.9 64.6°
Maximum altitude 14:00:09 46° 214° (SW) 2,680 11.6 63.5°
Drops below altitude 10° 14:08:57 10° 144° (SE) 3,492 10.7 62.7°
Sets 14:11:22 0° 137° (SE) 4,152 10.9 62.5°
